START_TIME,STEP,MOV.,A46,t_acc.,A13,t_acc.,M47,t_acc.,A17,t_acc.,A28,t_acc.,M38,t_acc.
1979-03-07 21:00:23.320 ,5,0,,0,24.,4.8,5.,4.8,,0,0.,4.8,6.,4.8
1979-03-07 21:00:28.120 ,5,0,,0,34.,4.8,5.,4.8,,0,0.,4.8,22.,4.8
1979-03-07 21:00:32.920 ,5,0,,0,62.,4.8,12.,4.8,,0,0.,4.8,46.,4.8
1979-03-07 21:00:37.720 ,5,0,,0,1.,4.8,0.,4.8,,0,0.,4.8,50.,4.8
1979-03-07 21:00:42.520 ,5,0,,0,0.,4.8,0.,4.8,,0,0.,4.8,52.,4.8
1979-03-07 21:00:47.320 ,4,0,,0,0.,4.8,0.,4.8,,0,0.,4.8,60.,4.8
1979-03-07 21:00:52.120 ,4,0,,0,0.,4.8,0.,4.8,,0,0.,4.8,49.,4.8
1979-03-07 21:00:56.920 ,4,0,,0,12.,4.8,2.,4.8,,0,0.,4.8,49.,4.8
1979-03-07 21:01:01.720 ,4,0,,0,56.,4.8,11.,4.8,,0,0.,4.8,48.,4.8
1979-03-07 21:01:06.520 ,4,0,,0,56.,4.8,6.,4.8,,0,0.,4.8,55.,4.8
1979-03-07 21:01:11.320 ,3,0,,0,56.,4.8,11.,4.8,,0,0.,4.8,54.,4.8
1979-03-07 21:01:16.120 ,3,0,,0,58.,4.8,7.,4.8,,0,0.,4.8,52.,4.8
1979-03-07 21:01:20.920 ,3,0,,0,36.,4.8,7.,4.8,,0,0.,4.8,34.,4.8
1979-03-07 21:01:25.720 ,3,0,,0,0.,4.8,0.,4.8,,0,0.,4.8,39.,4.8
1979-03-07 21:01:30.520 ,3,0,,0,0.,4.8,0.,4.8,,0,0.,4.8,47.,4.8
1979-03-07 21:01:35.320 ,2,0,,0,0.,4.8,0.,4.8,,0,0.,4.8,28.,4.8
1979-03-07 21:01:40.120 ,2,0,,0,0.,4.8,0.,4.8,,0,0.,4.8,38.,4.8
1979-03-07 21:01:44.920 ,2,0,,0,8.,4.8,1.,4.8,,0,0.,4.8,18.,4.8
1979-03-07 21:01:49.720 ,2,0,,0,29.,4.8,3.,4.8,,0,0.,4.8,22.,4.8
1979-03-07 21:01:54.520 ,2,0,,0,21.,4.8,4.,4.8,,0,0.,4.8,14.,4.8
1979-03-07 21:01:59.320 ,1,0,,0,36.,4.8,5.,4.8,,0,0.,4.8,15.,4.8
1979-03-07 21:02:04.120 ,1,0,,0,22.,4.8,4.,4.8,,0,0.,4.8,16.,4.8
1979-03-07 21:02:08.920 ,1,0,,0,9.,4.8,0.,4.8,,0,0.,4.8,3.,4.8
1979-03-07 21:02:13.720 ,1,0,,0,0.,4.8,0.,4.8,,0,0.,4.8,4.,4.8
1979-03-07 21:02:18.520 ,1,0,,0,0.,4.8,0.,4.8,,0,0.,4.8,6.,4.8
1979-03-07 21:02:23.320 ,0,0,,0,0.,4.8,0.,4.8,,0,0.,4.8,0.,4.8
1979-03-07 21:02:28.120 ,0,0,,0,0.,4.8,0.,4.8,,0,0.,4.8,4.,4.8
1979-03-07 21:02:32.920 ,0,0,,0,1.,4.8,0.,4.8,,0,0.,4.8,2.,4.8
1979-03-07 21:02:37.720 ,0,0,,0,4.,4.8,0.,4.8,,0,0.,4.8,3.,4.8
1979-03-07 21:02:42.520 ,0,0,,0,5.,4.8,0.,4.8,,0,0.,4.8,2.,4.8
1979-03-07 21:02:47.320 ,0,0,,0,7.,4.8,2.,4.8,,0,0.,4.8,1.,4.8
1979-03-07 21:02:52.120 ,0,0,,0,8.,4.8,0.,4.8,,0,0.,4.8,2.,4.8
1979-03-07 21:02:56.920 ,0,0,,0,4.,4.8,0.,4.8,,0,0.,4.8,3.,4.8
1979-03-07 21:03:01.720 ,0,0,,0,0.,4.8,0.,4.8,,0,0.,4.8,2.,4.8
1979-03-07 21:03:06.520 ,0,0,,0,0.,4.8,0.,4.8,,0,0.,4.8,0.,4.8
1979-03-07 21:03:11.320 ,1,0,,0,0.,4.8,0.,4.8,,0,0.,4.8,3.,4.8
1979-03-07 21:03:16.120 ,1,0,,0,0.,4.8,0.,4.8,,0,0.,4.8,1.,4.8
1979-03-07 21:03:20.920 ,1,0,,0,3.,4.8,0.,4.8,,0,0.,4.8,2.,4.8
1979-03-07 21:03:25.720 ,1,0,,0,11.,4.8,0.,4.8,,0,0.,4.8,3.,4.8
1979-03-07 21:03:30.520 ,1,0,,0,10.,4.8,1.,4.8,,0,0.,4.8,7.,4.8
1979-03-07 21:03:35.320 ,2,0,,0,10.,4.8,2.,4.8,,0,0.,4.8,3.,4.8
1979-03-07 21:03:40.120 ,2,0,,0,10.,4.8,2.,4.8,,0,0.,4.8,9.,4.8
1979-03-07 21:03:44.920 ,2,0,,0,26.,4.8,3.,4.8,,0,0.,4.8,15.,4.8
1979-03-07 21:03:49.720 ,2,0,,0,0.,4.8,0.,4.8,,0,0.,4.8,15.,4.8
1979-03-07 21:03:54.520 ,2,0,,0,0.,4.8,0.,4.8,,0,0.,4.8,20.,4.8
1979-03-07 21:03:59.320 ,3,0,,0,0.,4.8,0.,4.8,,0,0.,4.8,24.,4.8
1979-03-07 21:04:04.120 ,3,0,,0,0.,4.8,0.,4.8,,0,0.,4.8,27.,4.8
1979-03-07 21:04:08.920 ,3,0,,0,7.,4.8,1.,4.8,,0,0.,4.8,32.,4.8
1979-03-07 21:04:13.720 ,3,0,,0,37.,4.8,6.,4.8,,0,0.,4.8,32.,4.8
1979-03-07 21:04:18.520 ,3,0,,0,31.,4.8,7.,4.8,,0,0.,4.8,27.,4.8
1979-03-07 21:04:23.320 ,4,0,,0,32.,4.8,5.,4.8,,0,0.,4.8,45.,4.8
1979-03-07 21:04:28.120 ,4,0,,0,32.,4.8,4.,4.8,,0,0.,4.8,30.,4.8
1979-03-07 21:04:32.920 ,4,0,,0,33.,4.8,5.,4.8,,0,0.,4.8,35.,4.8
1979-03-07 21:04:37.720 ,4,0,,0,0.,4.8,0.,4.8,,0,0.,4.8,21.,4.8
1979-03-07 21:04:42.520 ,4,0,,0,0.,4.8,0.,4.8,,0,0.,4.8,42.,4.8
1979-03-07 21:04:47.320 ,5,0,,0,0.,4.8,0.,4.8,,0,0.,4.8,35.,4.8
1979-03-07 21:04:52.120 ,5,0,,0,0.,4.8,0.,4.8,,0,0.,4.8,41.,4.8
1979-03-07 21:04:56.920 ,5,0,,0,8.,4.8,1.,4.8,,0,0.,4.8,20.,4.8
1979-03-07 21:05:01.720 ,5,0,,0,54.,4.8,11.,4.8,,0,0.,4.8,27.,4.8
1979-03-07 21:05:06.520 ,5,0,,0,46.,4.8,8.,4.8,,0,0.,4.8,20.,4.8
1979-03-07 21:05:11.320 ,6,0,,0,48.,4.8,8.,4.8,,0,0.,4.8,23.,4.8
1979-03-07 21:05:16.120 ,6,0,,0,28.,4.8,6.,4.8,,0,0.,4.8,21.,4.8
1979-03-07 21:05:20.920 ,6,0,,0,14.,4.8,0.,4.8,,0,0.,4.8,6.,4.8
1979-03-07 21:05:25.720 ,6,0,,0,0.,4.8,0.,4.8,,0,0.,4.8,12.,4.8
1979-03-07 21:05:30.520 ,6,0,,0,0.,4.8,0.,4.8,,0,0.,4.8,5.,4.8
1979-03-07 21:05:35.320 ,7,0,,0,0.,4.8,0.,4.8,,0,0.,4.8,5.,4.8
1979-03-07 21:05:40.120 ,7,0,,0,1.,4.8,0.,4.8,,0,0.,4.8,4.,4.8
1979-03-07 21:05:44.920 ,7,0,,0,1.,4.8,0.,4.8,,0,0.,4.8,0.,4.8
1979-03-07 21:05:49.720 ,7,0,,0,3.,4.8,0.,4.8,,0,0.,4.8,0.,4.8
1979-03-07 21:05:54.520 ,7,0,,0,4.,4.8,0.,4.8,,0,0.,4.8,0.,4.8
1979-03-07 21:05:59.320 ,7,0,,0,4.,4.8,0.,4.8,,0,0.,4.8,0.,4.8
1979-03-07 21:06:04.120 ,7,0,,0,4.,4.8,0.,4.8,,0,0.,4.8,0.,4.8
1979-03-07 21:06:08.920 ,7,0,,0,3.,4.8,0.,4.8,,0,0.,4.8,0.,4.8
1979-03-07 21:06:13.720 ,7,0,,0,0.,4.8,0.,4.8,,0,0.,4.8,0.,4.8
1979-03-07 21:06:18.520 ,7,0,,0,0.,4.8,0.,4.8,,0,0.,4.8,0.,4.8
1979-03-07 21:06:23.320 ,6,0,,0,0.,4.8,0.,4.8,,0,0.,4.8,0.,4.8
1979-03-07 21:06:28.120 ,6,0,,0,0.,4.8,0.,4.8,,0,0.,4.8,1.,4.8
1979-03-07 21:06:32.920 ,6,0,,0,2.,4.8,0.,4.8,,0,0.,4.8,5.,4.8
1979-03-07 21:06:37.720 ,6,0,,0,10.,4.8,1.,4.8,,0,0.,4.8,2.,4.8
1979-03-07 21:06:42.520 ,6,0,,0,18.,4.8,4.,4.8,,0,0.,4.8,6.,4.8
1979-03-07 21:06:47.320 ,5,0,,0,11.,4.8,2.,4.8,,0,0.,4.8,7.,4.8
1979-03-07 21:06:52.120 ,5,0,,0,36.,4.8,9.,4.8,,0,0.,4.8,9.,4.8
1979-03-07 21:06:56.920 ,5,0,,0,44.,4.8,13.,4.8,,0,0.,4.8,35.,4.8
1979-03-07 21:07:01.720 ,5,0,,0,0.,4.8,0.,4.8,,0,0.,4.8,47.,4.8
1979-03-07 21:07:06.520 ,5,0,,0,0.,4.8,0.,4.8,,0,0.,4.8,47.,4.8
1979-03-07 21:07:11.320 ,4,0,,0,0.,4.8,0.,4.8,,0,0.,4.8,43.,4.8
1979-03-07 21:07:16.120 ,4,0,,0,0.,4.8,0.,4.8,,0,0.,4.8,40.,4.8
1979-03-07 21:07:20.920 ,4,0,,0,8.,4.8,2.,4.8,,0,0.,4.8,38.,4.8
1979-03-07 21:07:25.720 ,4,0,,0,44.,4.8,8.,4.8,,0,0.,4.8,49.,4.8
1979-03-07 21:07:30.520 ,4,0,,0,40.,4.8,8.,4.8,,0,0.,4.8,54.,4.8
1979-03-07 21:07:35.320 ,3,0,,0,48.,4.8,11.,4.8,,0,0.,4.8,46.,4.8
1979-03-07 21:07:40.120 ,3,0,,0,47.,4.8,16.,4.8,,0,0.,4.8,42.,4.8
1979-03-07 21:07:44.920 ,3,0,,0,43.,4.8,4.,4.8,,0,0.,4.8,35.,4.8
1979-03-07 21:07:49.720 ,3,0,,0,0.,4.8,0.,4.8,,0,0.,4.8,36.,4.8
1979-03-07 21:07:54.520 ,3,0,,0,0.,4.8,0.,4.8,,0,0.,4.8,30.,4.8
1979-03-07 21:07:59.320 ,2,0,,0,0.,4.8,0.,4.8,,0,0.,4.8,35.,4.8
1979-03-07 21:08:04.120 ,2,0,,0,0.,4.8,0.,4.8,,0,0.,4.8,32.,4.8
1979-03-07 21:08:08.920 ,2,0,,0,2.,4.8,0.,4.8,,0,0.,4.8,11.,4.8
1979-03-07 21:08:13.720 ,2,0,,0,18.,4.8,0.,4.8,,0,0.,4.8,9.,4.8
1979-03-07 21:08:18.520 ,2,0,,0,16.,4.8,0.,4.8,,0,0.,4.8,15.,4.8
1979-03-07 21:08:23.320 ,1,0,,0,12.,4.8,3.,4.8,,0,0.,4.8,7.,4.8
1979-03-07 21:08:28.120 ,1,0,,0,17.,4.8,0.,4.8,,0,0.,4.8,13.,4.8
1979-03-07 21:08:32.920 ,1,0,,0,8.,4.8,0.,4.8,,0,0.,4.8,2.,4.8
1979-03-07 21:08:37.720 ,1,0,,0,0.,4.8,0.,4.8,,0,0.,4.8,3.,4.8
1979-03-07 21:08:42.520 ,1,0,,0,0.,4.8,0.,4.8,,0,0.,4.8,1.,4.8
1979-03-07 21:08:47.320 ,0,0,,0,0.,4.8,0.,4.8,,0,0.,4.8,4.,4.8
1979-03-07 21:08:52.120 ,0,0,,0,0.,4.8,0.,4.8,,0,0.,4.8,4.,4.8
1979-03-07 21:08:56.920 ,0,0,,0,1.,4.8,0.,4.8,,0,0.,4.8,5.,4.8
1979-03-07 21:09:01.720 ,0,0,,0,13.,4.8,0.,4.8,,0,0.,4.8,0.,4.8
1979-03-07 21:09:06.520 ,0,0,,0,6.,4.8,2.,4.8,,0,0.,4.8,3.,4.8
1979-03-07 21:09:11.320 ,0,0,,0,6.,4.8,1.,4.8,,0,0.,4.8,1.,4.8
1979-03-07 21:09:16.120 ,0,0,,0,1.,4.8,0.,4.8,,0,0.,4.8,1.,4.8
1979-03-07 21:09:20.920 ,0,0,,0,5.,4.8,0.,4.8,,0,0.,4.8,2.,4.8
1979-03-07 21:09:25.720 ,0,0,,0,0.,4.8,0.,4.8,,0,0.,4.8,1.,4.8
1979-03-07 21:09:30.520 ,0,0,,0,0.,4.8,0.,4.8,,0,0.,4.8,3.,4.8
1979-03-07 21:09:35.320 ,1,0,,0,0.,4.8,0.,4.8,,0,0.,4.8,2.,4.8
1979-03-07 21:09:40.120 ,1,0,,0,0.,4.8,0.,4.8,,0,0.,4.8,1.,4.8
1979-03-07 21:09:44.920 ,1,0,,0,1.,4.8,0.,4.8,,0,0.,4.8,0.,4.8
1979-03-07 21:09:49.720 ,1,0,,0,7.,4.8,0.,4.8,,0,0.,4.8,1.,4.8
1979-03-07 21:09:54.520 ,1,0,,0,3.,4.8,0.,4.8,,0,0.,4.8,0.,4.8
1979-03-07 21:09:59.320 ,2,0,,0,13.,4.8,0.,4.8,,0,0.,4.8,2.,4.8
1979-03-07 21:10:04.120 ,2,0,,0,6.,4.8,0.,4.8,,0,0.,4.8,5.,4.8
1979-03-07 21:10:08.920 ,2,0,,0,12.,4.8,0.,4.8,,0,0.,4.8,4.,4.8
1979-03-07 21:10:13.720 ,2,0,,0,0.,4.8,0.,4.8,,0,0.,4.8,6.,4.8
1979-03-07 21:10:18.520 ,2,0,,0,0.,4.8,0.,4.8,,0,0.,4.8,8.,4.8
1979-03-07 21:10:23.320 ,3,0,,0,0.,4.8,0.,4.8,,0,0.,4.8,0.,4.8
1979-03-07 21:10:28.120 ,3,0,,0,0.,4.8,0.,4.8,,0,0.,4.8,6.,4.8
1979-03-07 21:10:32.920 ,3,0,,0,6.,4.8,1.,4.8,,0,0.,4.8,9.,4.8
1979-03-07 21:10:37.720 ,3,0,,0,14.,4.8,2.,4.8,,0,0.,4.8,10.,4.8
1979-03-07 21:10:42.520 ,3,0,,0,14.,4.8,0.,4.8,,0,0.,4.8,10.,4.8
1979-03-07 21:10:47.320 ,4,0,,0,14.,4.8,0.,4.8,,0,0.,4.8,12.,4.8
1979-03-07 21:10:52.120 ,4,0,,0,18.,4.8,2.,4.8,,0,0.,4.8,11.,4.8
1979-03-07 21:10:56.920 ,4,0,,0,21.,4.8,2.,4.8,,0,0.,4.8,17.,4.8
1979-03-07 21:11:01.720 ,4,0,,0,0.,4.8,0.,4.8,,0,0.,4.8,18.,4.8
1979-03-07 21:11:06.520 ,4,0,,0,0.,4.8,0.,4.8,,0,0.,4.8,17.,4.8
1979-03-07 21:11:11.320 ,5,0,,0,0.,4.8,0.,4.8,,0,0.,4.8,17.,4.8
1979-03-07 21:11:16.120 ,5,0,,0,0.,4.8,0.,4.8,,0,0.,4.8,16.,4.8
1979-03-07 21:11:20.920 ,5,0,,0,5.,4.8,1.,4.8,,0,0.,4.8,21.,4.8
1979-03-07 21:11:25.720 ,5,0,,0,22.,4.8,4.,4.8,,0,0.,4.8,20.,4.8
1979-03-07 21:11:30.520 ,5,0,,0,23.,4.8,1.,4.8,,0,0.,4.8,23.,4.8
1979-03-07 21:11:35.320 ,6,0,,0,35.,4.8,12.,4.8,,0,0.,4.8,25.,4.8
1979-03-07 21:11:40.120 ,6,0,,0,17.,4.8,4.,4.8,,0,0.,4.8,21.,4.8
1979-03-07 21:11:44.920 ,6,0,,0,11.,4.8,1.,4.8,,0,0.,4.8,12.,4.8
1979-03-07 21:11:49.720 ,6,0,,0,0.,4.8,0.,4.8,,0,0.,4.8,3.,4.8
1979-03-07 21:11:54.520 ,6,0,,0,0.,4.8,0.,4.8,,0,0.,4.8,5.,4.8
1979-03-07 21:11:59.330 ,7,0,,0,0.,4.8,0.,4.8,,0,0.,4.8,2.,4.8
1979-03-07 21:12:04.130 ,7,0,,0,0.,4.8,0.,4.8,,0,0.,4.8,3.,4.8
1979-03-07 21:12:08.920 ,7,0,,0,0.,4.8,0.,4.8,,0,0.,4.8,0.,4.8
1979-03-07 21:12:13.730 ,7,0,,0,2.,4.8,0.,4.8,,0,0.,4.8,0.,4.8
1979-03-07 21:12:18.530 ,7,0,,0,4.,4.8,0.,4.8,,0,0.,4.8,0.,4.8
1979-03-07 21:12:23.330 ,7,0,,0,6.,4.8,0.,4.8,,0,0.,4.8,0.,4.8
1979-03-07 21:12:28.130 ,7,0,,0,5.,4.8,0.,4.8,,0,0.,4.8,0.,4.8
1979-03-07 21:12:32.930 ,7,0,,0,4.,4.8,0.,4.8,,0,0.,4.8,0.,4.8
1979-03-07 21:12:37.730 ,7,0,,0,0.,4.8,0.,4.8,,0,0.,4.8,0.,4.8
1979-03-07 21:12:42.530 ,7,0,,0,0.,4.8,0.,4.8,,0,0.,4.8,0.,4.8
1979-03-07 21:12:47.330 ,6,0,,0,0.,4.8,0.,4.8,,0,0.,4.8,0.,4.8
1979-03-07 21:12:52.130 ,6,0,,0,0.,4.8,0.,4.8,,0,0.,4.8,1.,4.8
1979-03-07 21:12:56.930 ,6,0,,0,1.,4.8,0.,4.8,,0,0.,4.8,5.,4.8
1979-03-07 21:13:01.730 ,6,0,,0,15.,4.8,2.,4.8,,0,0.,4.8,6.,4.8
1979-03-07 21:13:06.530 ,6,0,,0,12.,4.8,0.,4.8,,0,0.,4.8,4.,4.8
1979-03-07 21:13:11.330 ,5,0,,0,14.,4.8,3.,4.8,,0,0.,4.8,6.,4.8
1979-03-07 21:13:16.130 ,5,0,,0,12.,4.8,3.,4.8,,0,0.,4.8,12.,4.8
1979-03-07 21:13:20.920 ,5,0,,0,16.,4.8,5.,4.8,,0,0.,4.8,12.,4.8
1979-03-07 21:13:25.730 ,5,0,,0,0.,4.8,0.,4.8,,0,0.,4.8,13.,4.8
1979-03-07 21:13:30.530 ,5,0,,0,0.,4.8,0.,4.8,,0,0.,4.8,16.,4.8
1979-03-07 21:13:35.330 ,4,0,,0,1.,4.8,0.,4.8,,0,0.,4.8,13.,4.8
1979-03-07 21:13:40.130 ,4,0,,0,0.,4.8,0.,4.8,,0,0.,4.8,8.,4.8
1979-03-07 21:13:44.930 ,4,0,,0,0.,4.8,0.,4.8,,0,0.,4.8,9.,4.8
1979-03-07 21:13:49.730 ,4,0,,0,14.,4.8,3.,4.8,,0,0.,4.8,8.,4.8
1979-03-07 21:13:54.530 ,4,0,,0,10.,4.8,0.,4.8,,0,0.,4.8,7.,4.8
1979-03-07 21:13:59.330 ,3,0,,0,11.,4.8,0.,4.8,,0,0.,4.8,8.,4.8
1979-03-07 21:14:04.130 ,3,0,,0,17.,4.8,1.,4.8,,0,0.,4.8,9.,4.8
1979-03-07 21:14:08.920 ,3,0,,0,16.,4.8,0.,4.8,,0,0.,4.8,5.,4.8
1979-03-07 21:14:13.730 ,3,0,,0,0.,4.8,0.,4.8,,0,0.,4.8,12.,4.8
1979-03-07 21:14:18.530 ,3,0,,0,0.,4.8,0.,4.8,,0,0.,4.8,8.,4.8
1979-03-07 21:14:23.330 ,2,0,,0,0.,4.8,0.,4.8,,0,0.,4.8,11.,4.8
1979-03-07 21:14:28.130 ,2,0,,0,0.,4.8,0.,4.8,,0,0.,4.8,10.,4.8
1979-03-07 21:14:32.930 ,2,0,,0,3.,4.8,1.,4.8,,0,0.,4.8,10.,4.8
1979-03-07 21:14:37.730 ,2,0,,0,16.,4.8,4.,4.8,,0,0.,4.8,9.,4.8
1979-03-07 21:14:42.530 ,2,0,,0,15.,4.8,5.,4.8,,0,0.,4.8,13.,4.8
1979-03-07 21:14:47.330 ,1,0,,0,15.,4.8,2.,4.8,,0,0.,4.8,17.,4.8
1979-03-07 21:14:52.130 ,1,0,,0,10.,4.8,3.,4.8,,0,0.,4.8,8.,4.8
1979-03-07 21:14:56.930 ,1,0,,0,3.,4.8,0.,4.8,,0,0.,4.8,4.,4.8
1979-03-07 21:15:01.730 ,1,0,,0,0.,4.8,0.,4.8,,0,0.,4.8,4.,4.8
1979-03-07 21:15:06.530 ,1,0,,0,0.,4.8,0.,4.8,,0,0.,4.8,1.,4.8
1979-03-07 21:15:11.330 ,0,0,,0,0.,4.8,0.,4.8,,0,0.,4.8,1.,4.8
1979-03-07 21:15:16.130 ,0,0,,0,0.,4.8,0.,4.8,,0,0.,4.8,0.,4.8
1979-03-07 21:15:20.920 ,0,0,,0,2.,4.8,1.,4.8,,0,0.,4.8,2.,4.8
1979-03-07 21:15:25.730 ,0,0,,0,5.,4.8,0.,4.8,,0,0.,4.8,1.,4.8
1979-03-07 21:15:30.530 ,0,0,,0,4.,4.8,0.,4.8,,0,0.,4.8,1.,4.8
1979-03-07 21:15:35.330 ,0,0,,0,7.,4.8,2.,4.8,,0,0.,4.8,0.,4.8
1979-03-07 21:15:40.130 ,0,0,,0,6.,4.8,0.,4.8,,0,0.,4.8,3.,4.8
1979-03-07 21:15:44.930 ,0,0,,0,6.,4.8,1.,4.8,,0,0.,4.8,1.,4.8
1979-03-07 21:15:49.730 ,0,0,,0,0.,4.8,0.,4.8,,0,0.,4.8,2.,4.8
1979-03-07 21:15:54.530 ,0,0,,0,0.,4.8,0.,4.8,,0,0.,4.8,2.,4.8
1979-03-07 21:15:59.330 ,1,0,,0,0.,4.8,0.,4.8,,0,0.,4.8,1.,4.8
1979-03-07 21:16:04.130 ,1,0,,0,0.,4.8,0.,4.8,,0,0.,4.8,2.,4.8
1979-03-07 21:16:08.920 ,1,0,,0,1.,4.8,0.,4.8,,0,0.,4.8,3.,4.8
1979-03-07 21:16:13.730 ,1,0,,0,7.,4.8,1.,4.8,,0,0.,4.8,1.,4.8
1979-03-07 21:16:18.530 ,1,0,,0,9.,4.8,1.,4.8,,0,0.,4.8,2.,4.8
1979-03-07 21:16:23.330 ,2,0,,0,9.,4.8,2.,4.8,,0,0.,4.8,4.,4.8
1979-03-07 21:16:28.130 ,2,0,,0,16.,4.8,2.,4.8,,0,0.,4.8,7.,4.8
1979-03-07 21:16:32.920 ,2,0,,0,27.,4.8,8.,4.8,,0,0.,4.8,22.,4.8
1979-03-07 21:16:37.730 ,2,0,,0,0.,4.8,0.,4.8,,0,0.,4.8,30.,4.8
1979-03-07 21:16:42.530 ,2,0,,0,0.,4.8,0.,4.8,,0,0.,4.8,21.,4.8
1979-03-07 21:16:47.330 ,3,0,,0,0.,4.8,0.,4.8,,0,0.,4.8,33.,4.8
1979-03-07 21:16:52.130 ,3,0,,0,0.,4.8,0.,4.8,,0,0.,4.8,24.,4.8
1979-03-07 21:16:56.930 ,3,0,,0,3.,4.8,0.,4.8,,0,0.,4.8,30.,4.8
1979-03-07 21:17:01.730 ,3,0,,0,22.,4.8,3.,4.8,,0,0.,4.8,22.,4.8
1979-03-07 21:17:06.530 ,3,0,,0,26.,4.8,8.,4.8,,0,0.,4.8,26.,4.8
1979-03-07 21:17:11.320 ,4,0,,0,27.,4.8,8.,4.8,,0,0.,4.8,22.,4.8
1979-03-07 21:17:16.130 ,4,0,,0,16.,4.8,3.,4.8,,0,0.,4.8,32.,4.8
1979-03-07 21:17:20.920 ,4,0,,0,13.,4.8,1.,4.8,,0,0.,4.8,18.,4.8
1979-03-07 21:17:25.720 ,4,0,,0,0.,4.8,0.,4.8,,0,0.,4.8,23.,4.8
1979-03-07 21:17:30.520 ,4,0,,0,0.,4.8,0.,4.8,,0,0.,4.8,18.,4.8
1979-03-07 21:17:35.320 ,5,0,,0,0.,4.8,0.,4.8,,0,0.,4.8,14.,4.8
1979-03-07 21:17:40.130 ,5,0,,0,0.,4.8,0.,4.8,,0,0.,4.8,22.,4.8
1979-03-07 21:17:44.920 ,5,0,,0,10.,4.8,2.,4.8,,0,0.,4.8,20.,4.8
1979-03-07 21:17:49.720 ,5,0,,0,24.,4.8,7.,4.8,,0,0.,4.8,19.,4.8
1979-03-07 21:17:54.520 ,5,0,,0,30.,4.8,5.,4.8,,0,0.,4.8,23.,4.8
1979-03-07 21:17:59.320 ,6,0,,0,28.,4.8,10.,4.8,,0,0.,4.8,17.,4.8
1979-03-07 21:18:04.130 ,6,0,,0,21.,4.8,4.,4.8,,0,0.,4.8,16.,4.8
1979-03-07 21:18:08.920 ,6,0,,0,8.,4.8,0.,4.8,,0,0.,4.8,6.,4.8
1979-03-07 21:18:13.720 ,6,0,,0,0.,4.8,0.,4.8,,0,0.,4.8,3.,4.8
1979-03-07 21:18:18.520 ,6,0,,0,0.,4.8,0.,4.8,,0,0.,4.8,2.,4.8
1979-03-07 21:18:23.320 ,7,0,,0,0.,4.8,0.,4.8,,0,0.,4.8,3.,4.8
1979-03-07 21:18:28.130 ,7,0,,0,0.,4.8,0.,4.8,,0,0.,4.8,1.,4.8
1979-03-07 21:18:32.920 ,7,0,,0,1.,4.8,0.,4.8,,0,0.,4.8,0.,4.8
1979-03-07 21:18:37.720 ,7,0,,0,6.,4.8,0.,4.8,,0,0.,4.8,0.,4.8
1979-03-07 21:18:42.530 ,7,0,,0,3.,4.8,0.,4.8,,0,0.,4.8,0.,4.8
1979-03-07 21:18:47.320 ,7,0,,0,4.,4.8,0.,4.8,,0,0.,4.8,0.,4.8
1979-03-07 21:18:52.130 ,7,0,,0,1.,4.8,0.,4.8,,0,0.,4.8,0.,4.8
1979-03-07 21:18:56.920 ,7,0,,0,3.,4.8,0.,4.8,,0,0.,4.8,0.,4.8
1979-03-07 21:19:01.720 ,7,0,,0,0.,4.8,0.,4.8,,0,0.,4.8,0.,4.8
1979-03-07 21:19:06.520 ,7,0,,0,0.,4.8,0.,4.8,,0,0.,4.8,0.,4.8
1979-03-07 21:19:11.320 ,6,0,,0,0.,4.8,0.,4.8,,0,0.,4.8,0.,4.8
1979-03-07 21:19:16.130 ,6,0,,0,0.,4.8,0.,4.8,,0,0.,4.8,4.,4.8
1979-03-07 21:19:20.920 ,6,0,,0,3.,4.8,0.,4.8,,0,0.,4.8,9.,4.8
1979-03-07 21:19:25.720 ,6,0,,0,7.,4.8,0.,4.8,,0,0.,4.8,6.,4.8
1979-03-07 21:19:30.520 ,6,0,,0,10.,4.8,1.,4.8,,0,0.,4.8,9.,4.8
1979-03-07 21:19:35.320 ,5,0,,0,14.,4.8,1.,4.8,,0,0.,4.8,7.,4.8
1979-03-07 21:19:40.130 ,5,0,,0,26.,4.8,4.,4.8,,0,0.,4.8,10.,4.8
1979-03-07 21:19:44.920 ,5,0,,0,48.,4.8,16.,4.8,,0,0.,4.8,39.,4.8
1979-03-07 21:19:49.720 ,5,0,,0,0.,4.8,0.,4.8,,0,0.,4.8,35.,4.8
1979-03-07 21:19:54.520 ,5,0,,0,1.,4.8,0.,4.8,,0,0.,4.8,49.,4.8
1979-03-07 21:19:59.320 ,4,0,,0,0.,4.8,0.,4.8,,0,0.,4.8,42.,4.8
1979-03-07 21:20:04.130 ,4,0,,0,0.,4.8,0.,4.8,,0,0.,4.8,57.,4.8
1979-03-07 21:20:08.920 ,4,0,,0,18.,4.8,8.,4.8,,0,0.,4.8,68.,4.8
1979-03-07 21:20:13.720 ,4,0,,0,94.,4.8,19.,4.8,,0,0.,4.8,68.,4.8
1979-03-07 21:20:18.520 ,4,0,,0,82.,4.8,17.,4.8,,0,0.,4.8,74.,4.8
1979-03-07 21:20:23.320 ,3,0,,0,86.,4.8,25.,4.8,,0,0.,4.8,70.,4.8
1979-03-07 21:20:28.130 ,3,0,,0,78.,4.8,15.,4.8,,0,0.,4.8,61.,4.8
1979-03-07 21:20:32.920 ,3,0,,0,112.,4.8,18.,4.8,,0,0.,4.8,78.,4.8
1979-03-07 21:20:37.720 ,3,0,,0,0.,4.8,0.,4.8,,0,0.,4.8,78.,4.8
1979-03-07 21:20:42.530 ,3,0,,0,0.,4.8,0.,4.8,,0,0.,4.8,68.,4.8
1979-03-07 21:20:47.330 ,2,0,,0,0.,4.8,0.,4.8,,0,0.,4.8,72.,4.8
1979-03-07 21:20:52.130 ,2,0,,0,,0,,0,,0,,0,,0
1979-03-07 21:20:56.930 ,2,0,,0,20.,4.8,7.,4.8,,0,0.,4.8,55.,4.8
1979-03-07 21:21:01.730 ,2,0,,0,104.,4.8,24.,4.8,,0,0.,4.8,55.,4.8
1979-03-07 21:21:06.530 ,2,0,,0,106.,4.8,16.,4.8,,0,0.,4.8,48.,4.8
1979-03-07 21:21:11.330 ,1,0,,0,90.,4.8,24.,4.8,,0,0.,4.8,49.,4.8
1979-03-07 21:21:16.130 ,1,0,,0,78.,4.8,10.,4.8,,0,0.,4.8,46.,4.8
1979-03-07 21:21:20.930 ,1,0,,0,38.,4.8,13.,4.8,,0,0.,4.8,31.,4.8
1979-03-07 21:21:25.730 ,1,0,,0,0.,4.8,0.,4.8,,0,0.,4.8,18.,4.8
1979-03-07 21:21:30.530 ,1,0,,0,0.,4.8,0.,4.8,,0,0.,4.8,26.,4.8
1979-03-07 21:21:35.330 ,0,0,,0,0.,4.8,0.,4.8,,0,0.,4.8,16.,4.8
1979-03-07 21:21:40.130 ,0,0,,0,0.,4.8,0.,4.8,,0,0.,4.8,17.,4.8
1979-03-07 21:21:44.930 ,0,0,,0,1.,4.8,0.,4.8,,0,0.,4.8,0.,4.8
1979-03-07 21:21:49.730 ,0,0,,0,2.,4.8,0.,4.8,,0,0.,4.8,0.,4.8
1979-03-07 21:21:54.530 ,0,0,,0,6.,4.8,0.,4.8,,0,0.,4.8,1.,4.8
1979-03-07 21:21:59.330 ,0,0,,0,8.,4.8,0.,4.8,,0,0.,4.8,1.,4.8
1979-03-07 21:22:04.130 ,0,0,,0,5.,4.8,0.,4.8,,0,0.,4.8,1.,4.8
1979-03-07 21:22:08.930 ,0,0,,0,7.,4.8,1.,4.8,,0,0.,4.8,2.,4.8
1979-03-07 21:22:13.730 ,0,0,,0,0.,4.8,0.,4.8,,0,0.,4.8,4.,4.8
1979-03-07 21:22:18.530 ,0,0,,0,0.,4.8,0.,4.8,,0,0.,4.8,1.,4.8
1979-03-07 21:22:23.330 ,1,0,,0,0.,4.8,0.,4.8,,0,0.,4.8,2.,4.8
1979-03-07 21:22:28.130 ,1,0,,0,0.,4.8,0.,4.8,,0,0.,4.8,7.,4.8
1979-03-07 21:22:32.930 ,1,0,,0,11.,4.8,2.,4.8,,0,0.,4.8,20.,4.8
1979-03-07 21:22:37.730 ,1,0,,0,42.,4.8,12.,4.8,,0,0.,4.8,17.,4.8
1979-03-07 21:22:42.530 ,1,0,,0,39.,4.8,5.,4.8,,0,0.,4.8,22.,4.8
1979-03-07 21:22:47.330 ,2,0,,0,41.,4.8,5.,4.8,,0,0.,4.8,14.,4.8
1979-03-07 21:22:52.130 ,2,0,,0,64.,4.8,10.,4.8,,0,0.,4.8,28.,4.8
1979-03-07 21:22:56.930 ,2,0,,0,92.,4.8,17.,4.8,,0,0.,4.8,61.,4.8
1979-03-07 21:23:01.730 ,2,0,,0,0.,4.8,0.,4.8,,0,0.,4.8,57.,4.8
1979-03-07 21:23:06.530 ,2,0,,0,0.,4.8,0.,4.8,,0,0.,4.8,55.,4.8
1979-03-07 21:23:11.330 ,3,0,,0,0.,4.8,0.,4.8,,0,0.,4.8,47.,4.8
1979-03-07 21:23:16.130 ,3,0,,0,0.,4.8,0.,4.8,,0,0.,4.8,52.,4.8
1979-03-07 21:23:20.930 ,3,0,,0,19.,4.8,6.,4.8,,0,0.,4.8,62.,4.8
1979-03-07 21:23:25.730 ,3,0,,0,98.,4.8,5.,4.8,,0,0.,4.8,55.,4.8
1979-03-07 21:23:30.530 ,3,0,,0,118.,4.8,17.,4.8,,0,0.,4.8,60.,4.8
1979-03-07 21:23:35.330 ,4,0,,0,112.,4.8,15.,4.8,,0,0.,4.8,53.,4.8
1979-03-07 21:23:40.130 ,4,0,,0,120.,4.8,19.,4.8,,0,0.,4.8,66.,4.8
1979-03-07 21:23:44.930 ,4,0,,0,136.,4.8,22.,4.8,,0,0.,4.8,64.,4.8
1979-03-07 21:23:49.730 ,4,0,,0,0.,4.8,0.,4.8,,0,0.,4.8,100.,4.8
1979-03-07 21:23:54.530 ,4,0,,0,0.,4.8,0.,4.8,,0,0.,4.8,62.,4.8
1979-03-07 21:23:59.330 ,5,0,,0,0.,4.8,0.,4.8,,0,0.,4.8,80.,4.8
1979-03-07 21:24:04.130 ,5,0,,0,0.,4.8,0.,4.8,,0,0.,4.8,72.,4.8
1979-03-07 21:24:08.930 ,5,0,,0,26.,4.8,4.,4.8,,0,0.,4.8,68.,4.8
1979-03-07 21:24:13.730 ,5,0,,0,156.,4.8,40.,4.8,,0,0.,4.8,63.,4.8
1979-03-07 21:24:18.530 ,5,0,,0,160.,4.8,24.,4.8,,0,0.,4.8,84.,4.8
1979-03-07 21:24:23.330 ,6,0,,0,144.,4.8,23.,4.8,,0,0.,4.8,76.,4.8
1979-03-07 21:24:28.130 ,6,0,,0,118.,4.8,16.,4.8,,0,0.,4.8,53.,4.8
1979-03-07 21:24:32.930 ,6,0,,0,68.,4.8,14.,4.8,,0,0.,4.8,37.,4.8
1979-03-07 21:24:37.730 ,6,0,,0,0.,4.8,0.,4.8,,0,0.,4.8,40.,4.8
1979-03-07 21:24:42.530 ,6,0,,0,0.,4.8,0.,4.8,,0,0.,4.8,28.,4.8
1979-03-07 21:24:47.330 ,7,0,,0,0.,4.8,0.,4.8,,0,0.,4.8,30.,4.8
1979-03-07 21:24:52.130 ,7,0,,0,0.,4.8,0.,4.8,,0,0.,4.8,23.,4.8
1979-03-07 21:24:56.930 ,7,0,,0,2.,4.8,0.,4.8,,0,0.,4.8,0.,4.8
1979-03-07 21:25:01.730 ,7,0,,0,8.,4.8,0.,4.8,,0,0.,4.8,0.,4.8
1979-03-07 21:25:06.530 ,7,0,,0,7.,4.8,0.,4.8,,0,0.,4.8,0.,4.8
1979-03-07 21:25:11.330 ,7,0,,0,4.,4.8,0.,4.8,,0,0.,4.8,0.,4.8
1979-03-07 21:25:16.130 ,7,0,,0,5.,4.8,0.,4.8,,0,0.,4.8,0.,4.8
1979-03-07 21:25:20.930 ,7,0,,0,5.,4.8,0.,4.8,,0,0.,4.8,0.,4.8
1979-03-07 21:25:25.730 ,7,0,,0,0.,4.8,0.,4.8,,0,0.,4.8,0.,4.8
1979-03-07 21:25:30.530 ,7,0,,0,0.,4.8,0.,4.8,,0,0.,4.8,0.,4.8
1979-03-07 21:25:35.330 ,6,0,,0,0.,4.8,0.,4.8,,0,0.,4.8,0.,4.8
1979-03-07 21:25:40.130 ,6,0,,0,0.,4.8,0.,4.8,,0,0.,4.8,11.,4.8
1979-03-07 21:25:44.930 ,6,0,,0,9.,4.8,2.,4.8,,0,0.,4.8,39.,4.8
1979-03-07 21:25:49.730 ,6,0,,0,68.,4.8,9.,4.8,,0,0.,4.8,45.,4.8
1979-03-07 21:25:54.530 ,6,0,,0,82.,4.8,21.,4.8,,0,0.,4.8,29.,4.8
1979-03-07 21:25:59.330 ,5,0,,0,80.,4.8,16.,4.8,,0,0.,4.8,27.,4.8
1979-03-07 21:26:04.130 ,5,0,,0,114.,4.8,20.,4.8,,0,0.,4.8,35.,4.8
1979-03-07 21:26:08.930 ,5,0,,0,114.,4.8,17.,4.8,,0,0.,4.8,56.,4.8
1979-03-07 21:26:13.730 ,5,0,,0,0.,4.8,0.,4.8,,0,0.,4.8,61.,4.8
1979-03-07 21:26:18.530 ,5,0,,0,0.,4.8,0.,4.8,,0,0.,4.8,54.,4.8
1979-03-07 21:26:23.330 ,4,0,,0,0.,4.8,0.,4.8,,0,0.,4.8,57.,4.8
1979-03-07 21:26:28.130 ,4,0,,0,0.,4.8,0.,4.8,,0,0.,4.8,47.,4.8
1979-03-07 21:26:32.930 ,4,0,,0,13.,4.8,2.,4.8,,0,0.,4.8,61.,4.8
1979-03-07 21:26:37.730 ,4,0,,0,78.,4.8,15.,4.8,,0,0.,4.8,64.,4.8
1979-03-07 21:26:42.530 ,4,0,,0,63.,4.8,6.,4.8,,0,0.,4.8,59.,4.8
1979-03-07 21:26:47.330 ,3,0,,0,58.,4.8,10.,4.8,,0,0.,4.8,60.,4.8
1979-03-07 21:26:52.130 ,3,0,,0,72.,4.8,11.,4.8,,0,0.,4.8,54.,4.8
1979-03-07 21:26:56.930 ,3,0,,0,48.,4.8,8.,4.8,,0,0.,4.8,43.,4.8
1979-03-07 21:27:01.730 ,3,0,,0,0.,4.8,0.,4.8,,0,0.,4.8,52.,4.8
1979-03-07 21:27:06.530 ,3,0,,0,0.,4.8,0.,4.8,,0,0.,4.8,46.,4.8
1979-03-07 21:27:11.330 ,2,0,,0,0.,4.8,0.,4.8,,0,0.,4.8,54.,4.8
1979-03-07 21:27:16.130 ,2,0,,0,0.,4.8,0.,4.8,,0,0.,4.8,31.,4.8
1979-03-07 21:27:20.930 ,2,0,,0,7.,4.8,0.,4.8,,0,0.,4.8,27.,4.8
1979-03-07 21:27:25.730 ,2,0,,0,33.,4.8,5.,4.8,,0,0.,4.8,23.,4.8
1979-03-07 21:27:30.530 ,2,0,,0,30.,4.8,9.,4.8,,0,0.,4.8,31.,4.8
1979-03-07 21:27:35.330 ,1,0,,0,35.,4.8,6.,4.8,,0,0.,4.8,25.,4.8
1979-03-07 21:27:40.130 ,1,0,,0,26.,4.8,3.,4.8,,0,0.,4.8,23.,4.8
1979-03-07 21:27:44.930 ,1,0,,0,7.,4.8,1.,4.8,,0,0.,4.8,5.,4.8
1979-03-07 21:27:49.730 ,1,0,,0,0.,4.8,0.,4.8,,0,0.,4.8,1.,4.8
1979-03-07 21:27:54.530 ,1,0,,0,0.,4.8,0.,4.8,,0,0.,4.8,0.,4.8
1979-03-07 21:27:59.330 ,0,0,,0,0.,4.8,0.,4.8,,0,0.,4.8,1.,4.8
1979-03-07 21:28:04.130 ,0,0,,0,1.,4.8,0.,4.8,,0,0.,4.8,2.,4.8
1979-03-07 21:28:08.930 ,0,0,,0,2.,4.8,0.,4.8,,0,0.,4.8,1.,4.8
1979-03-07 21:28:13.730 ,0,0,,0,5.,4.8,0.,4.8,,0,0.,4.8,0.,4.8
1979-03-07 21:28:18.530 ,0,0,,0,3.,4.8,0.,4.8,,0,0.,4.8,2.,4.8
1979-03-07 21:28:23.330 ,0,0,,0,3.,4.8,0.,4.8,,0,0.,4.8,0.,4.8
1979-03-07 21:28:28.130 ,0,0,,0,6.,4.8,0.,4.8,,0,0.,4.8,0.,4.8
1979-03-07 21:28:32.930 ,0,0,,0,1.,4.8,0.,4.8,,0,0.,4.8,1.,4.8
1979-03-07 21:28:37.730 ,0,0,,0,0.,4.8,0.,4.8,,0,0.,4.8,1.,4.8
1979-03-07 21:28:42.530 ,0,0,,0,0.,4.8,0.,4.8,,0,0.,4.8,1.,4.8
1979-03-07 21:28:47.330 ,1,0,,0,0.,4.8,0.,4.8,,0,0.,4.8,1.,4.8
1979-03-07 21:28:52.130 ,1,0,,0,0.,4.8,0.,4.8,,0,0.,4.8,1.,4.8
1979-03-07 21:28:56.930 ,1,0,,0,1.,4.8,0.,4.8,,0,0.,4.8,0.,4.8
1979-03-07 21:29:01.730 ,1,0,,0,2.,4.8,1.,4.8,,0,0.,4.8,2.,4.8
1979-03-07 21:29:06.530 ,1,0,,0,6.,4.8,0.,4.8,,0,0.,4.8,4.,4.8
1979-03-07 21:29:11.330 ,2,0,,0,6.,4.8,0.,4.8,,0,0.,4.8,5.,4.8
1979-03-07 21:29:16.130 ,2,0,,0,18.,4.8,4.,4.8,,0,0.,4.8,7.,4.8
1979-03-07 21:29:20.930 ,2,0,,0,34.,4.8,9.,4.8,,0,0.,4.8,22.,4.8
1979-03-07 21:29:25.730 ,2,0,,0,0.,4.8,0.,4.8,,0,0.,4.8,28.,4.8
1979-03-07 21:29:30.530 ,2,0,,0,0.,4.8,0.,4.8,,0,0.,4.8,26.,4.8
1979-03-07 21:29:35.330 ,3,0,,0,0.,4.8,0.,4.8,,0,0.,4.8,26.,4.8
1979-03-07 21:29:40.130 ,3,0,,0,0.,4.8,0.,4.8,,0,0.,4.8,23.,4.8